Terminal Aerodrome Forecast
Issued by NWS

Home | Current Version | Previous Version | Text Only | Print | Product List | Glossary Off
Versions: 1 2 3 4 5 6 7 8 9 10 11 12 13 14 15 16 17 18 19 20 21 22 23 24 25 26 27 28 29 30 31 32 33 34 35

000
FTUS43 KLOT 202200 AAC
TAFORD
TAF AMD
KORD 202204Z 2022/2124 03010KT P6SM BKN045
     FM210100 35008KT P6SM SCT025 BKN035
     FM211300 01011G17KT P6SM SCT015 BKN025=

USA.gov is the U.S. government's official web portal to all federal, state and local government web resources and services.